Regional Weather Roundup
Issued by NWS

Home | Current Version | Previous Version | Graphics & Text | Print | Product List | Glossary On
Versions: 1 2 3 4 5 6 7 8 9 10 11 12 13 14 15 16 17 18 19 20 21 22 23 24 25 26 27 28 29 30 31 32 33 34 35 36 37 38 39 40 41 42 43 44 45 46 47 48 49 50
970
ASUS45 KPSR 061810
RWRAZ

ARIZONA HOURLY REGIONAL WEATHER ROUNDUP
NATIONAL WEATHER SERVICE PHOENIX AZ
1100 AM MST SAT FEB 06 2016

NOTE: FAIR INDICATES FEW OR NO CLOUDS BELOW 12,000 FEET WITH NO
SIGNIFICANT WEATHER AND/OR OBSTRUCTIONS TO VISIBILITY.

AZZ001>003-036-061900-
NORTHWEST ARIZONA

CITY           SKY/WX    TMP DP  RH WIND       PRES   REMARKS
BULLHEAD CITY  SUNNY     57  25  28 N24G33    30.42F
KINGMAN        SUNNY     50  50 100 N12       30.43S
6HR MIN TEMP:  29; 6HR MAX TEMP:  50;

$$

AZZ004>008-015-016-018-061900-
NORTH CENTRAL ARIZONA

CITY           SKY/WX    TMP DP  RH WIND       PRES   REMARKS
GRAND CANYON   SUNNY     47   1  15 NE5       30.48R
6HR MIN TEMP:   8; 6HR MAX TEMP:  47;

WILLIAMS       SUNNY     45  -2  14 SE6       30.49S
PRESCOTT       SUNNY     42  16  34 NE3       30.42F
6HR MIN TEMP:  21; 6HR MAX TEMP:  43;

FLAGSTAFF      SUNNY     36   9  32 E7        30.46F WCI  30
6HR MIN TEMP:   5; 6HR MAX TEMP:  36;

PAYSON         SUNNY     48   1  14 VRB3      30.44F
PAGE           SUNNY     36  25  64 CALM      30.54F
6HR MIN TEMP:  25; 6HR MAX TEMP:  36;

$$

AZZ009>014-017-061900-
NORTHEAST ARIZONA

CITY           SKY/WX    TMP DP  RH WIND       PRES   REMARKS
WINSLOW        SUNNY     34  19  54 E7        30.53F WCI  28
6HR MIN TEMP:  13; 6HR MAX TEMP:  35;

SAINT JOHNS    SUNNY     36  17  46 VRB3      30.50F
6HR MIN TEMP:  11; 6HR MAX TEMP:  36;

WINDOW ROCK    SUNNY     32   0  25 SW3       30.48F
6HR MIN TEMP:   6; 6HR MAX TEMP:  32;

SHOW LOW       SUNNY     32  14  47 N6        30.50R WCI  26
$$

AZZ023-061900-
GREATER PHOENIX AREA

CITY           SKY/WX    TMP DP  RH WIND       PRES   REMARKS
PHOENIX        MOSUNNY   63  14  15 E15       30.35S
6HR MIN TEMP:  43; 6HR MAX TEMP:  63;

BUCKEYE        SUNNY     63  14  15 E17       30.35F
GLENDALE       MOSUNNY   61  19  20 NE6       30.37F
LUKE AFB       SUNNY     62  20  19 E6        30.34F
6HR MIN TEMP:  39; 6HR MAX TEMP:  62;

DEER VALLEY    SUNNY     64  12  13 E12       30.34F
6HR MIN TEMP:  42; 6HR MAX TEMP:  64;

SCOTTSDALE     SUNNY     60  11  14 W3        30.37S
6HR MIN TEMP:  39; 6HR MAX TEMP:  60;

MESA-FALCON    SUNNY    N/A N/A N/A N18       30.35F
MESA-GATEWAY   MOSUNNY   59  21  23 N5        30.36F
CHANDLER       SUNNY     61  18  18 N5        30.36S
$$

AZZ027-028-061900-
SOUTHWEST MARICOPA COUNTY AND PINAL COUNTY

CITY           SKY/WX    TMP DP  RH WIND       PRES   REMARKS
CASA GRANDE    SUNNY     63  16  16 E17G23    30.34F
6HR MIN TEMP:  43; 6HR MAX TEMP:  63;

GILA BEND      FAIR      63  14  14 NE10      30.31F
6HR MIN TEMP:  39; 6HR MAX TEMP:  63;

$$

AZZ503-504-507>509-061900-
SOUTHEAST ARIZONA

CITY           SKY/WX    TMP DP  RH WIND       PRES   REMARKS
TUCSON         SUNNY     62   5  10 E21G28    30.35F
6HR MIN TEMP:  47; 6HR MAX TEMP:  62;

DAVIS-MONTHAN  SUNNY     61   6  11 E5        30.33F
6HR MIN TEMP:  40; 6HR MAX TEMP:  61;

RYAN FIELD     SUNNY     64  12  13 E22       30.33F
NOGALES        SUNNY     58   9  14 SW6       30.34F
6HR MIN TEMP:  35; 6HR MAX TEMP:  59;

SIERRA VISTA   SUNNY     51   5  15 E8        30.42S
6HR MIN TEMP:  29; 6HR MAX TEMP:  51;

DOUGLAS        SUNNY     55  -2   9 VRB3      30.42F
6HR MIN TEMP:  20; 6HR MAX TEMP:  55;

SAFFORD        SUNNY     51  10  19 E9        30.45F
6HR MIN TEMP:  32; 6HR MAX TEMP:  51;

$$

AZZ020-021-025-026-031-061900-
SOUTHWEST ARIZONA

CITY           SKY/WX    TMP DP  RH WIND       PRES   REMARKS
YUMA           SUNNY     65  24  21 N12       30.35R
6HR MIN TEMP:  50; 6HR MAX TEMP:  65;

$$

CAZ031-033-041-043-047-048-061-061900-
SOUTHERN CALIFORNIA

CITY           SKY/WX    TMP DP  RH WIND       PRES   REMARKS
DOWNTOWN L.A.  SUNNY     69  24  18 CALM      30.27F
6HR MIN TEMP:  50; 6HR MAX TEMP:  69;

L.A. AIRPORT   SUNNY     69  25  19 VRB6      30.28S
6HR MIN TEMP:  51; 6HR MAX TEMP:  69;

SAN DIEGO      MOSUNNY   69  24  18 NW6       30.27R
6HR MIN TEMP:  50; 6HR MAX TEMP:  69;

BURBANK        SUNNY     62  23  22 CALM      30.28F
6HR MIN TEMP:  43; 6HR MAX TEMP:  62;

ONTARIO        SUNNY     63  26  24 VRB3      30.29R
6HR MIN TEMP:  41; 6HR MAX TEMP:  63;

RIVERSIDE      SUNNY     68  20  16 E10       30.30R
6HR MIN TEMP:  46; 6HR MAX TEMP:  69;

PALM SPRINGS   SUNNY     66  24  20 CALM      30.40R
6HR MIN TEMP:  47; 6HR MAX TEMP:  66;

EL CENTRO NAS  MOSUNNY   64  25  22 W7        30.39R
6HR MIN TEMP:  39; 6HR MAX TEMP:  64;

IMPERIAL       SUNNY     66  26  22 W3        30.37R
6HR MIN TEMP:  41; 6HR MAX TEMP:  66;

BLYTHE         SUNNY     61  26  26 N5        30.39S
6HR MIN TEMP:  42; 6HR MAX TEMP:  61;

NEEDLES        SUNNY     59  26  28 N17G25    30.42S
6HR MIN TEMP:  49; 6HR MAX TEMP:  59;

$$

NVZ020-UTZ003-061900-
SOUTHERN NEVADA-UTAH

CITY           SKY/WX    TMP DP  RH WIND       PRES   REMARKS
LAS VEGAS      MOSUNNY   50  24  36 VRB3      30.45R
6HR MIN TEMP:  38; 6HR MAX TEMP:  50;

SALT LAKE CITY MOSUNNY   30  20  66 S6        30.55R WCI  24
6HR MIN TEMP:  22; 6HR MAX TEMP:  32;

$$

NMZ009-TXZ055-061900-
NEW MEXICO-WEST TEXAS

CITY           SKY/WX    TMP DP  RH WIND       PRES   REMARKS
ALBUQUERQUE    SUNNY     39  12  33 N7        30.49F WCI  34
6HR MIN TEMP:  22; 6HR MAX TEMP:  39;

EL PASO        MOSUNNY   46   7  20 N8        30.47F
6HR MIN TEMP:  21; 6HR MAX TEMP:  46;

$$


........................KEY........................
SKY/WX - SKY CONDITION/WEATHER
TMP    - TEMPERATURE IN FAHRENHEIT
DP     - DEW POINT IN FAHRENHEIT
RH     - RELATIVE HUMIDITY IN PERCENT
WIND   - DIRECTION AND SPEED IN MILES PER HOUR (MPH)
VRB    - VARIABLE WIND DIRECTION
PRES   - MEAN SEA LEVEL PRESSURE IN INCHES OF MERCURY
         F - FALLING PRESSURE   R - RISING PRESSURE
         S - STEADY PRESSURE
VSB    - VISIBILITY IN MILES
HX     - HEAT INDEX IN FAHRENHEIT
WCI    - WIND CHILL INDEX IN FAHRENHEIT
TC     - TEMPERATURE IN CELSIUS WHICH IS ALSO KNOWN AS
         TEMPERATURE IN CENTIGRADE
AFB    - AIR FORCE BASE
         LUKE AFB IS LUKE AIR FORCE BASE
         DAVIS-MONTHAN IS DAVIS-MONTHAN AIR FORCE BASE
NAS    - NAVAL AIR STATION
         EL CENTRO NAS IS EL CENTRO NAVAL AIR STATION
N/A    - NOT AVAILABLE





USA.gov is the U.S. government's official web portal to all federal, state and local government web resources and services.